Regional Weather Roundup
Issued by NWS

Home | Current Version | Previous Version | Graphics & Text | Print | Product List | Glossary On
Versions: 1 2 3 4 5 6 7 8 9 10 11 12 13 14 15 16 17 18 19 20 21 22 23 24 25 26 27 28 29 30 31 32 33 34 35 36 37 38 39 40 41 42 43 44 45 46 47 48 49 50
744
ASUS44 KLIX 231805
RWRLA
LOUISIANA WEATHER ROUNDUP
NATIONAL WEATHER SERVICE NEW ORLEANS LA
100 PM CDT TUE SEP 23 2014

NOTE: "FAIR" INDICATES FEW OR NO CLOUDS BELOW 12,000 FEET WITH NO
      SIGNIFICANT WEATHER AND/OR OBSTRUCTIONS TO VISIBILITY.
      SKY/WX - SKY CONDITION AND SIGNIFICANT WEATHER.
      TMP - AIR TEMPERATURE.    DP   - DEWPOINT TEMPERATURE.
      RH  - RELATIVE HUMIDITY.  PRES - PRESSURE.
      HX  - HEAT INDEX.         WCI  - WIND CHILL INDEX.

*  THESE STATIONS ARE NOT NWS OR FAA STATIONS AND ARE NOT UNDER
   NWS QUALITY CONTROL.

LAZ040-048-061>063-065-066-069-231900-
SOUTHEAST LOUISIANA

CITY           SKY/WX    TMP DP  RH WIND       PRES   REMARKS
N.O. AUDUBON   NOT AVBL
N.O. INTL ARPT MOSUNNY   82  53  36 E12       30.10S
6HR MIN TEMP:  70; 6HR MAX TEMP:  83;

N.O. LAKEFRONT SUNNY     82  55  39 NE12      30.10F
6HR MIN TEMP:  70; 6HR MAX TEMP:  82;

N.O. DOWNTOWN* FAIR      81  52  36 NE12      30.10S
6HR MIN TEMP:  68; 6HR MAX TEMP:  81;

SLIDELL        SUNNY     82  55  39 N8        30.09F
6HR MIN TEMP:  56; 6HR MAX TEMP:  82;

BATON ROUGE    SUNNY     82  56  40 E10       30.11F
6HR MIN TEMP:  59; 6HR MAX TEMP:  82;

BOOTHVILLE     SUNNY     82  64  54 NE9       30.07F
6HR MIN TEMP:  78; 6HR MAX TEMP:  82;

BELLE CHASSE   MOSUNNY   83  52  34 NE14      30.09S
6HR MIN TEMP:  66; 6HR MAX TEMP:  83;

BOGALUSA*        N/A     83  51  33 NE9       30.13S
6HR MIN TEMP:  57; 6HR MAX TEMP:  83;

GALLIANO*      NOT AVBL
NEW ROADS*     FAIR      80  55  42 N7        30.12F
6HR MIN TEMP:  62; 6HR MAX TEMP:  80;

GONZALES*      FAIR      81  55  40 NE7       30.10F
6HR MIN TEMP:  60; 6HR MAX TEMP:  81;

HAMMOND*       SUNNY     82  50  32 E5        30.12F
HOUMA*         SUNNY     84  10   6 NE7       30.08F
PORT FOURCHON* CLEAR     81  64  57 NE17G23   30.10F

$$

LAZ041-044-053-054-231900-
SOUTHWEST LOUISIANA

CITY           SKY/WX    TMP DP  RH WIND       PRES   REMARKS
LAKE CHARLES   SUNNY     82  57  42 NE10      30.11F
6HR MIN TEMP:  61; 6HR MAX TEMP:  82;

LAFAYETTE      SUNNY     82  53  36 E6        30.11F
6HR MIN TEMP:  59; 6HR MAX TEMP:  82;

PATTERSON      SUNNY     82  61  47 NE8       30.12F
6HR MIN TEMP:  63; 6HR MAX TEMP:  82;

SALT POINT       N/A     86  62  44 NE6       30.08F
6HR MIN TEMP:  66; 6HR MAX TEMP:  86;

NEW IBERIA     SUNNY     83  57  41 NE8       30.11F
6HR MIN TEMP:  63; 6HR MAX TEMP:  84;

CHENAULT AIRPK SUNNY     79  57  47 NE13      30.12F

$$

LAZ027-028-231900-
CENTRAL LOUISIANA

CITY           SKY/WX    TMP DP  RH WIND       PRES   REMARKS
FORT POLK      NOT AVBL
ALEXANDRIA INT SUNNY     80  53  39 E9        30.13F
6HR MIN TEMP:  54; 6HR MAX TEMP:  81;

ALEXANDRIA     SUNNY     80  54  40 VRB6      30.15F
6HR MIN TEMP:  54; 6HR MAX TEMP:  80;


$$

LAZ001-002-231900-
NORTHWEST LOUISIANA

CITY           SKY/WX    TMP DP  RH WIND       PRES   REMARKS
SHREVEPORT     PTSUNNY   80  51  36 E8        30.18F
6HR MIN TEMP:  58; 6HR MAX TEMP:  81;

BARKSDALE AFB  MOSUNNY   79  48  33 VRB5      30.18F
6HR MIN TEMP:  55; 6HR MAX TEMP:  80;

DTN SHREVEPORT MOSUNNY   79  52  38 VRB6      30.18F
6HR MIN TEMP:  57; 6HR MAX TEMP:  79;


$$

LAZ014-016-231900-
NORTHEAST LOUISIANA

CITY           SKY/WX    TMP DP  RH WIND       PRES   REMARKS
MONROE         SUNNY     80  51  36 NE13      30.18F
6HR MIN TEMP:  55; 6HR MAX TEMP:  80;

TALLULAH       SUNNY     79  51  37 VRB5      30.16F
6HR MIN TEMP:  57; 6HR MAX TEMP:  79;


$$




USA.gov is the U.S. government's official web portal to all federal, state and local government web resources and services.